TimeEDT,TemperatureF,Dew PointF,Humidity,Sea Level PressureIn,VisibilityMPH,Wind Direction,Wind SpeedMPH,Gust SpeedMPH,PrecipitationIn,Events,Conditions,WindDirDegrees,DateUTC
12:54 AM,42.1,28.9,60,30.02,10.0,NW,9.2,-,N/A,,Clear,310,2013-10-24 04:54:00
1:54 AM,39.9,28.9,65,30.04,10.0,NW,5.8,-,N/A,,Clear,320,2013-10-24 05:54:00
2:54 AM,37.0,28.9,73,30.05,10.0,West,5.8,-,N/A,,Clear,280,2013-10-24 06:54:00
3:54 AM,36.0,28.9,76,30.06,10.0,SW,3.5,-,N/A,,Clear,230,2013-10-24 07:54:00
4:54 AM,35.1,28.9,78,30.07,10.0,WSW,5.8,-,N/A,,Clear,240,2013-10-24 08:54:00
5:54 AM,35.1,28.9,78,30.09,10.0,WSW,4.6,-,N/A,,Clear,240,2013-10-24 09:54:00
6:54 AM,34.0,28.9,82,30.11,10.0,West,5.8,-,N/A,,Clear,260,2013-10-24 10:54:00
7:54 AM,35.1,28.9,78,30.12,10.0,West,6.9,-,N/A,,Clear,270,2013-10-24 11:54:00
8:54 AM,41.0,30.9,67,30.14,10.0,WSW,6.9,-,N/A,,Clear,250,2013-10-24 12:54:00
9:54 AM,46.0,30.0,54,30.14,10.0,West,9.2,-,N/A,,Partly Cloudy,260,2013-10-24 13:54:00
10:54 AM,48.9,28.0,44,30.14,10.0,West,10.4,-,N/A,,Partly Cloudy,270,2013-10-24 14:54:00
11:54 AM,51.1,28.0,41,30.13,10.0,West,11.5,-,N/A,,Scattered Clouds,280,2013-10-24 15:54:00
12:54 PM,55.0,30.0,38,30.12,10.0,NW,11.5,20.7,N/A,,Scattered Clouds,310,2013-10-24 16:54:00
1:54 PM,55.9,28.9,36,30.09,10.0,NW,15.0,20.7,N/A,,Mostly Cloudy,320,2013-10-24 17:54:00
2:54 PM,55.9,30.0,37,30.08,10.0,West,13.8,20.7,N/A,,Mostly Cloudy,270,2013-10-24 18:54:00
3:54 PM,55.9,30.0,37,30.08,10.0,WNW,16.1,24.2,N/A,,Mostly Cloudy,300,2013-10-24 19:54:00
4:54 PM,53.1,30.0,41,30.08,10.0,WNW,9.2,-,N/A,,Mostly Cloudy,290,2013-10-24 20:54:00
5:54 PM,54.0,30.0,40,30.09,10.0,NW,8.1,-,N/A,,Mostly Cloudy,320,2013-10-24 21:54:00
6:54 PM,50.0,28.9,44,30.12,10.0,NNW,3.5,-,N/A,,Partly Cloudy,340,2013-10-24 22:54:00
7:54 PM,48.0,30.0,50,30.14,10.0,North,4.6,-,N/A,,Partly Cloudy,350,2013-10-24 23:54:00
8:54 PM,48.0,30.9,52,30.15,10.0,North,3.5,-,N/A,,Mostly Cloudy,360,2013-10-25 00:54:00
9:54 PM,46.9,30.9,54,30.17,10.0,NNE,3.5,-,N/A,,Mostly Cloudy,30,2013-10-25 01:54:00
10:54 PM,46.0,30.9,56,30.17,10.0,NE,5.8,-,N/A,,Mostly Cloudy,40,2013-10-25 02:54:00
11:54 PM,44.1,30.9,60,30.18,10.0,NNE,3.5,-,N/A,,Overcast,20,2013-10-25 03:54:00